TimePDT,TemperatureF,Dew PointF,Humidity,Sea Level PressureIn,VisibilityMPH,Wind Direction,Wind SpeedMPH,Gust SpeedMPH,PrecipitationIn,Events,Conditions,WindDirDegrees,DateUTC
12:00 AM,41.0,41.0,100,30.47,3.0,SW,3.5,-,N/A,Fog,Mostly Cloudy,230,2013-10-04 07:00:00
12:14 AM,41.0,41.0,100,30.47,0.5,West,2.3,-,N/A,Fog,Fog,260,2013-10-04 07:14:00
12:25 AM,42.8,42.8,100,30.47,0.1,West,3.5,-,N/A,Fog,Fog,270,2013-10-04 07:25:00
1:00 AM,41.0,41.0,100,30.47,0.0,SW,4.6,-,N/A,Fog,Fog,230,2013-10-04 08:00:00
2:00 AM,42.8,42.8,100,30.48,0.0,WSW,4.6,-,N/A,Fog,Fog,240,2013-10-04 09:00:00
3:00 AM,44.6,44.6,100,30.48,0.1,SW,3.5,-,N/A,Fog,Fog,230,2013-10-04 10:00:00
4:00 AM,44.6,44.6,100,30.48,0.2,West,5.8,-,N/A,Fog,Fog,260,2013-10-04 11:00:00
5:00 AM,43,43,100,30.47,0,WSW,4.6,,,Fog,Partial Fog,240,2013-10-04 12:00:00
5:00 AM,42.8,42.8,100,30.46,0.1,WSW,4.6,-,N/A,Fog,Fog,240,2013-10-04 12:00:00
6:00 AM,44.6,44.6,100,30.48,0.1,West,5.8,-,N/A,Fog,Fog,260,2013-10-04 13:00:00
6:37 AM,42.8,42.8,100,30.49,0.0,SW,4.6,-,N/A,Fog,Fog,230,2013-10-04 13:37:00
6:44 AM,42.8,42.8,100,30.48,3.0,SSW,4.6,-,N/A,,Mostly Cloudy,210,2013-10-04 13:44:00
7:00 AM,42.8,42.8,100,30.48,10.0,SW,3.5,-,N/A,,Mostly Cloudy,230,2013-10-04 14:00:00
8:00 AM,44.6,44.6,100,30.48,3.0,SW,4.6,-,N/A,,Overcast,230,2013-10-04 15:00:00
9:00 AM,46.4,46.4,100,30.49,10.0,SSW,2.3,-,N/A,,Mostly Cloudy,200,2013-10-04 16:00:00
10:00 AM,50.0,48.2,94,30.49,15.0,Variable,2.3,-,N/A,,Mostly Cloudy,0,2013-10-04 17:00:00
10:47 AM,48.2,46.4,93,30.48,3.0,ENE,6.9,-,N/A,,Overcast,70,2013-10-04 17:47:00
11:00 AM,48,47,94,30.48,3,East,5.8,,,,Mist,80,2013-10-04 18:00:00
11:00 AM,48.2,46.4,93,30.48,3.0,East,5.8,-,N/A,,Overcast,80,2013-10-04 18:00:00
11:07 AM,48.2,46.4,93,30.49,2.0,ESE,4.6,-,N/A,,Overcast,110,2013-10-04 18:07:00
11:23 AM,50.0,50.0,100,30.48,4.0,East,5.8,-,N/A,,Mostly Cloudy,80,2013-10-04 18:23:00
12:00 PM,51.8,48.2,88,30.49,20.0,East,4.6,-,N/A,,Mostly Cloudy,80,2013-10-04 19:00:00
1:00 PM,51.8,46.4,82,30.47,30.0,ESE,4.6,-,N/A,,Mostly Cloudy,120,2013-10-04 20:00:00
2:00 PM,53.6,48.2,82,30.44,30.0,East,5.8,-,N/A,,Mostly Cloudy,90,2013-10-04 21:00:00
3:00 PM,53.6,46.4,77,30.43,30.0,East,5.8,-,N/A,,Overcast,100,2013-10-04 22:00:00
4:00 PM,53.6,48.2,82,30.42,30.0,East,5.8,-,N/A,,Overcast,100,2013-10-04 23:00:00
5:00 PM,52,48,82,30.42,28,East,4.6,,,,Overcast,100,2013-10-05 00:00:00
5:00 PM,51.8,48.2,88,30.41,30.0,ESE,4.6,-,N/A,,Overcast,110,2013-10-05 00:00:00
6:00 PM,51.8,46.4,82,30.40,30.0,East,4.6,-,N/A,,Overcast,100,2013-10-05 01:00:00
7:00 PM,51.8,46.4,82,30.39,30.0,ESE,3.5,-,N/A,,Overcast,120,2013-10-05 02:00:00
8:00 PM,51.8,48.2,88,30.38,30.0,East,5.8,-,N/A,,Overcast,100,2013-10-05 03:00:00
9:00 PM,51.8,48.2,88,30.38,30.0,East,3.5,-,N/A,,Overcast,90,2013-10-05 04:00:00
10:00 PM,51.8,48.2,88,30.38,30.0,Calm,Calm,-,N/A,,Overcast,0,2013-10-05 05:00:00
11:00 PM,51,49,89,30.38,28,West,1.2,,,,Overcast,260,2013-10-05 06:00:00
11:00 PM,50.0,48.2,94,30.37,30.0,Calm,Calm,-,N/A,,Overcast,0,2013-10-05 06:00:00